Погода в Ханате

Россия / Республика Калмыкия     47°41′57″N   44°52′26″E
темп.,
°C
ветер,
м/с
пор.,
м/с
влажн.,
%
обл.,
%
осадки,
мм/ч
давл.,
гПа
погр.,
м
5 августа, чт
чт500:00+26ссв410484 0.0 1014310
03:00+24ссв4105568 0.0 1015346
06:00+24ссв48561 0.0 1015292
09:00+29св5536100 0.0 10161189
12:00+31ссв44294 0.0 10152041
15:00+34с54220 0.0 10142707
18:00+31ссв442517 0.0 10142077
21:00+28св47297 0.0 1014148
6 августа, пт
пт600:00+25всв41032100 0.0 1014259
03:00+24всв4103542 0.0 1014246
06:00+24всв49378 0.0 1014293
09:00+30в66250 0.0 10141054
12:00+33в55195 0.0 10132039
15:00+35в55175 0.0 10112574
18:00+34в661729 0.0 10102338
21:00+29всв612225 0.0 1011301
7 августа, сб
сб700:00+27в5132548 0.0 1011283
03:00+25в6142879 0.0 1010341
06:00+25в61428100 0.0 1011433
09:00+31вюв8102099 0.0 1010859
12:00+36вюв8916100 0.0 10092005
15:00+37вюв891599 0.0 10082340
18:00+36в89171 0.0 10071451
21:00+31в7152038 0.0 1009387
8 августа, вс
вс800:00+29в5112120 0.0 1009228
03:00+26в41026100 0.0 1010179
06:00+27в61425100 0.0 1010363
09:00+33вюв71019100 0.0 1010759
12:00+37в8914100 0.0 10092057
15:00+37вюв7814100 0.0 10093432
18:00+36всв6101697 0.0 1008628
21:00+34всв111714100 0.0 1008665
9 августа, пн
пн900:00+31всв8151777 0.0 1009375
03:00+29в71520100 0.0 1009381
06:00+29в7142989 0.0 1009571
09:00+33вюв892272 0.0 10101296
12:00+37вюв67200 0.0 10092149
15:00+38ююв45180 0.0 10082836
18:00+37ю44190 0.0 10082198
21:00+32ю332329 0.0 100939